THA110 VTBS-VTCC

Flight info

Callsign THA110
Flight time 1h 18m
Altitude 36000
Route OLVUK1E OLVUK Y26 MARNI MARNI2A
Aircraft A21N/M-SDE3FGHIRWY/LB1

Departure

Time 2026-04-26 19:51
Airport Suvarnabhumi Airport (VTBS)

Arrival

Time 2026-04-26 21:09
Airport Chiang Mai International Airport (VTCC)
Time Latitude Longitude Altitude Speed Heading
2026-04-26 19:34 13.68775 100.75398 18 ft 0 kts 285°
2026-04-26 19:42 13.68774 100.75404 18 ft 2 kts 285°
2026-04-26 19:43 13.68770 100.75419 18 ft 2 kts 285°
2026-04-26 19:43 13.68768 100.75424 18 ft 2 kts 285°
2026-04-26 19:43 13.68764 100.75440 18 ft 2 kts 285°
2026-04-26 19:43 13.68761 100.75454 18 ft 2 kts 285°
2026-04-26 19:44 13.68756 100.75469 18 ft 2 kts 300°
2026-04-26 19:44 13.68746 100.75481 18 ft 2 kts 322°
2026-04-26 19:44 13.68733 100.75488 18 ft 2 kts 344°
2026-04-26 19:44 13.68718 100.75491 18 ft 2 kts
2026-04-26 19:45 13.68710 100.75490 18 ft 1 kts 18°
2026-04-26 19:45 13.68706 100.75488 18 ft 0 kts 15°
2026-04-26 19:47 13.68710 100.75489 18 ft 3 kts 14°
2026-04-26 19:47 13.68738 100.75496 18 ft 7 kts 14°
2026-04-26 19:47 13.68814 100.75517 18 ft 9 kts 15°
2026-04-26 19:47 13.68850 100.75554 18 ft 5 kts 81°
2026-04-26 19:48 13.68849 100.75604 16 ft 9 kts 104°
2026-04-26 19:48 13.68832 100.75682 14 ft 11 kts 88°
2026-04-26 19:48 13.68889 100.75736 14 ft 12 kts 14°
2026-04-26 19:48 13.68977 100.75758 15 ft 13 kts 14°
2026-04-26 19:49 13.69067 100.75782 16 ft 13 kts 14°
2026-04-26 19:49 13.69108 100.75846 15 ft 11 kts 100°
2026-04-26 19:49 13.69087 100.75934 14 ft 13 kts 105°
2026-04-26 19:49 13.69061 100.76028 12 ft 11 kts 110°
2026-04-26 19:50 13.68996 100.76055 13 ft 11 kts 192°
2026-04-26 19:50 13.68982 100.76051 13 ft 0 kts 194°
2026-04-26 19:50 13.68962 100.76047 13 ft 17 kts 194°
2026-04-26 19:50 13.68550 100.75938 16 ft 100 kts 194°
2026-04-26 19:51 13.67645 100.75701 18 ft 165 kts 194°
2026-04-26 19:51 13.66494 100.75393 586 ft 175 kts 194°
2026-04-26 19:51 13.65314 100.75145 1418 ft 174 kts 185°
2026-04-26 19:51 13.64122 100.75133 2274 ft 170 kts 179°
2026-04-26 19:52 13.62911 100.75167 2627 ft 181 kts 179°
2026-04-26 19:52 13.61601 100.75205 2915 ft 196 kts 178°
2026-04-26 19:52 13.60182 100.75260 3209 ft 212 kts 176°
2026-04-26 19:52 13.58632 100.75493 3426 ft 233 kts 167°
2026-04-26 19:53 13.57034 100.75993 3762 ft 250 kts 159°
2026-04-26 19:53 13.55343 100.76650 4159 ft 265 kts 162°
2026-04-26 19:53 13.53556 100.77217 4772 ft 270 kts 163°
2026-04-26 19:53 13.51756 100.77758 5411 ft 274 kts 164°
2026-04-26 19:54 13.49905 100.78294 6035 ft 277 kts 166°
2026-04-26 19:54 13.47969 100.78526 6633 ft 281 kts 182°
2026-04-26 19:54 13.46053 100.78220 7251 ft 284 kts 196°
2026-04-26 19:54 13.44305 100.77264 7817 ft 288 kts 223°
2026-04-26 19:55 13.43142 100.75609 8398 ft 289 kts 249°
2026-04-26 19:55 13.42797 100.73585 8948 ft 291 kts 275°
2026-04-26 19:55 13.43209 100.71555 9506 ft 293 kts 286°
2026-04-26 19:55 13.43760 100.69528 9849 ft 296 kts 286°
2026-04-26 19:56 13.44303 100.67506 9954 ft 297 kts 286°
2026-04-26 19:56 13.44835 100.65451 9961 ft 296 kts 285°
2026-04-26 19:56 13.45353 100.63403 9964 ft 296 kts 285°
2026-04-26 19:56 13.45869 100.61349 10030 ft 300 kts 285°
2026-04-26 19:57 13.46673 100.59323 10299 ft 311 kts 305°
2026-04-26 19:57 13.48247 100.57793 10588 ft 321 kts 330°
2026-04-26 19:57 13.50376 100.57058 11053 ft 325 kts 354°
2026-04-26 19:57 13.52623 100.57056 11569 ft 327 kts
2026-04-26 19:58 13.54928 100.57147 12014 ft 331 kts
2026-04-26 19:58 13.57244 100.57230 12466 ft 334 kts
2026-04-26 19:58 13.59562 100.57302 12932 ft 337 kts
2026-04-26 19:58 13.61920 100.57367 13397 ft 339 kts
2026-04-26 19:59 13.64305 100.57430 13863 ft 342 kts
2026-04-26 19:59 13.66721 100.57493 14330 ft 344 kts
2026-04-26 19:59 13.69115 100.57555 14764 ft 346 kts
2026-04-26 19:59 13.71548 100.57620 15185 ft 349 kts
2026-04-26 20:00 13.73982 100.57686 15589 ft 352 kts
2026-04-26 20:00 13.76450 100.57646 15985 ft 354 kts 352°
2026-04-26 20:00 13.78834 100.57047 16387 ft 354 kts 338°
2026-04-26 20:00 13.81055 100.55885 16797 ft 355 kts 329°
2026-04-26 20:01 13.83150 100.54557 17163 ft 358 kts 327°
2026-04-26 20:01 13.85271 100.53181 17527 ft 360 kts 327°
2026-04-26 20:01 13.87423 100.51800 17905 ft 362 kts 328°
2026-04-26 20:01 13.89572 100.50436 18277 ft 364 kts 328°
2026-04-26 20:02 13.91724 100.49084 18662 ft 365 kts 329°
2026-04-26 20:02 13.93989 100.47853 19018 ft 367 kts 335°
2026-04-26 20:02 13.96377 100.46847 19374 ft 369 kts 340°
2026-04-26 20:02 13.97997 100.46300 19602 ft 371 kts 342°
2026-04-26 20:03 14.01295 100.45255 20079 ft 373 kts 342°
2026-04-26 20:03 14.03794 100.44472 20421 ft 374 kts 343°
2026-04-26 20:03 14.06308 100.43681 20743 ft 377 kts 342°
2026-04-26 20:03 14.08827 100.42884 21070 ft 378 kts 342°
2026-04-26 20:04 14.11339 100.42088 21384 ft 380 kts 342°
2026-04-26 20:04 14.13859 100.41291 21705 ft 382 kts 342°
2026-04-26 20:04 14.16423 100.40479 22035 ft 383 kts 342°
2026-04-26 20:04 14.18961 100.39672 22352 ft 384 kts 342°
2026-04-26 20:05 14.21524 100.38858 22679 ft 385 kts 342°
2026-04-26 20:05 14.24117 100.38036 23023 ft 385 kts 342°
2026-04-26 20:05 14.26664 100.37231 23353 ft 386 kts 342°
2026-04-26 20:05 14.29276 100.36404 23660 ft 387 kts 342°
2026-04-26 20:06 14.31833 100.35592 23971 ft 388 kts 342°
2026-04-26 20:06 14.34437 100.34762 24296 ft 389 kts 341°
2026-04-26 20:06 14.37041 100.33920 24610 ft 390 kts 341°
2026-04-26 20:06 14.39637 100.33082 24899 ft 391 kts 341°
2026-04-26 20:07 14.42230 100.32251 25203 ft 392 kts 341°
2026-04-26 20:07 14.44852 100.31366 25507 ft 393 kts 339°
2026-04-26 20:07 14.47401 100.30341 25789 ft 394 kts 335°
2026-04-26 20:07 14.49901 100.29160 26056 ft 395 kts 333°
2026-04-26 20:08 14.52382 100.27915 26333 ft 396 kts 333°
2026-04-26 20:08 14.54859 100.26662 26599 ft 397 kts 333°
2026-04-26 20:08 14.57348 100.25404 26876 ft 398 kts 333°
2026-04-26 20:08 14.59845 100.24143 27168 ft 399 kts 333°
2026-04-26 20:09 14.62339 100.22885 27427 ft 400 kts 332°
2026-04-26 20:09 14.64870 100.21682 27668 ft 402 kts 335°
2026-04-26 20:09 14.67495 100.20615 27893 ft 405 kts 338°
2026-04-26 20:09 14.70161 100.19692 28123 ft 407 kts 340°
2026-04-26 20:10 14.72876 100.18785 28354 ft 409 kts 340°
2026-04-26 20:10 14.75578 100.17889 28612 ft 410 kts 340°
2026-04-26 20:10 14.78306 100.16981 28847 ft 411 kts 340°
2026-04-26 20:10 14.81041 100.16072 29088 ft 413 kts 340°
2026-04-26 20:11 14.83783 100.15160 29345 ft 414 kts 340°
2026-04-26 20:11 14.86537 100.14243 29603 ft 414 kts 340°
2026-04-26 20:11 14.89300 100.13323 29835 ft 416 kts 340°
2026-04-26 20:12 14.94834 100.11477 30303 ft 418 kts 340°
2026-04-26 20:12 14.97608 100.10551 30536 ft 419 kts 340°
2026-04-26 20:12 15.00396 100.09623 30770 ft 421 kts 340°
2026-04-26 20:12 15.03197 100.08692 30993 ft 422 kts 340°
2026-04-26 20:13 15.05990 100.07765 31204 ft 423 kts 339°
2026-04-26 20:13 15.08838 100.06817 31435 ft 424 kts 339°
2026-04-26 20:13 15.11632 100.05889 31658 ft 426 kts 339°
2026-04-26 20:13 15.14466 100.04952 31855 ft 427 kts 339°
2026-04-26 20:14 15.17314 100.04008 32125 ft 427 kts 339°
2026-04-26 20:14 15.20152 100.03066 32469 ft 425 kts 339°
2026-04-26 20:14 15.22966 100.02129 32809 ft 423 kts 339°
2026-04-26 20:14 15.25775 100.01195 33171 ft 421 kts 339°
2026-04-26 20:15 15.28534 100.00274 33468 ft 421 kts 339°
2026-04-26 20:15 15.31346 99.99335 33727 ft 422 kts 339°
2026-04-26 20:15 15.34152 99.98399 33999 ft 422 kts 339°
2026-04-26 20:15 15.36940 99.97467 34234 ft 422 kts 339°
2026-04-26 20:16 15.39758 99.96525 34423 ft 424 kts 339°
2026-04-26 20:16 15.42558 99.95587 34569 ft 426 kts 339°
2026-04-26 20:16 15.45404 99.94634 34734 ft 428 kts 339°
2026-04-26 20:16 15.48223 99.93690 34908 ft 429 kts 339°
2026-04-26 20:17 15.51100 99.92728 35087 ft 431 kts 338°
2026-04-26 20:17 15.53953 99.91775 35273 ft 431 kts 338°
2026-04-26 20:17 15.56795 99.90823 35458 ft 432 kts 338°
2026-04-26 20:17 15.58716 99.90181 35560 ft 433 kts 338°
2026-04-26 20:18 15.62552 99.88895 35748 ft 435 kts 338°
2026-04-26 20:18 15.68361 99.86948 35814 ft 437 kts 338°
2026-04-26 20:19 15.74192 99.84992 35810 ft 437 kts 338°
2026-04-26 20:19 15.80011 99.83040 35815 ft 438 kts 338°
2026-04-26 20:20 15.85831 99.81083 35818 ft 444 kts 338°
2026-04-26 20:20 15.91789 99.79079 35827 ft 451 kts 338°
2026-04-26 20:21 15.97802 99.77058 35818 ft 456 kts 338°
2026-04-26 20:21 16.03857 99.75021 35818 ft 460 kts 338°
2026-04-26 20:22 16.09945 99.72970 35820 ft 460 kts 338°
2026-04-26 20:22 16.16058 99.70921 35827 ft 461 kts 338°
2026-04-26 20:23 16.22188 99.68859 35829 ft 461 kts 338°
2026-04-26 20:23 16.28286 99.66795 35834 ft 460 kts 338°
2026-04-26 20:24 16.34394 99.64730 35840 ft 458 kts 338°
2026-04-26 20:24 16.40450 99.62695 35838 ft 459 kts 338°
2026-04-26 20:25 16.46571 99.60636 35824 ft 458 kts 338°
2026-04-26 20:25 16.52628 99.58588 35825 ft 458 kts 337°
2026-04-26 20:26 16.58708 99.56528 35837 ft 457 kts 337°
2026-04-26 20:26 16.61709 99.55512 35832 ft 442 kts 337°
2026-04-26 20:26 16.64623 99.54527 35835 ft 437 kts 337°
2026-04-26 20:27 16.70378 99.52573 35838 ft 435 kts 337°
2026-04-26 20:27 16.73289 99.51592 35558 ft 435 kts 337°
2026-04-26 20:27 16.76175 99.50621 35272 ft 432 kts 337°
2026-04-26 20:27 16.79003 99.49667 34997 ft 428 kts 337°
2026-04-26 20:28 16.81841 99.48710 34720 ft 425 kts 337°
2026-04-26 20:28 16.84650 99.47757 34445 ft 424 kts 337°
2026-04-26 20:28 16.87460 99.46805 34168 ft 424 kts 337°
2026-04-26 20:28 16.90286 99.45845 33891 ft 425 kts 337°
2026-04-26 20:29 16.93104 99.44888 33619 ft 426 kts 337°
2026-04-26 20:29 16.95928 99.43927 33278 ft 427 kts 337°
2026-04-26 20:29 16.98777 99.42960 32833 ft 428 kts 337°
2026-04-26 20:29 17.01628 99.41989 32279 ft 430 kts 338°
2026-04-26 20:30 17.04467 99.41024 31684 ft 428 kts 338°
2026-04-26 20:30 17.07276 99.40072 31291 ft 422 kts 338°
2026-04-26 20:30 17.10063 99.39126 30877 ft 416 kts 338°
2026-04-26 20:30 17.12805 99.38198 30459 ft 411 kts 338°
2026-04-26 20:31 17.15523 99.37278 30032 ft 407 kts 338°
2026-04-26 20:31 17.18190 99.36372 29605 ft 403 kts 338°
2026-04-26 20:31 17.20862 99.35465 29180 ft 399 kts 338°
2026-04-26 20:31 17.23467 99.34573 28763 ft 395 kts 337°
2026-04-26 20:32 17.26084 99.33667 28349 ft 392 kts 337°
2026-04-26 20:32 17.28658 99.32777 27937 ft 389 kts 337°
2026-04-26 20:32 17.31252 99.31885 27519 ft 386 kts 337°
2026-04-26 20:32 17.33787 99.31016 27100 ft 383 kts 337°
2026-04-26 20:33 17.36336 99.30144 26681 ft 380 kts 337°
2026-04-26 20:33 17.38841 99.29288 26268 ft 378 kts 337°
2026-04-26 20:33 17.41331 99.28437 25851 ft 375 kts 337°
2026-04-26 20:33 17.43800 99.27595 25437 ft 373 kts 338°
2026-04-26 20:34 17.46310 99.26836 25024 ft 372 kts 341°
2026-04-26 20:34 17.48834 99.26189 24635 ft 370 kts 341°
2026-04-26 20:34 17.51319 99.25568 24243 ft 367 kts 341°
2026-04-26 20:34 17.53808 99.24947 23842 ft 364 kts 342°
2026-04-26 20:35 17.56251 99.24337 23446 ft 362 kts 341°
2026-04-26 20:35 17.58700 99.23724 23043 ft 360 kts 341°
2026-04-26 20:35 17.61144 99.23112 22628 ft 358 kts 341°
2026-04-26 20:35 17.63580 99.22501 22214 ft 356 kts 341°
2026-04-26 20:36 17.65972 99.21901 21811 ft 355 kts 341°
2026-04-26 20:36 17.68381 99.21296 21397 ft 354 kts 341°
2026-04-26 20:36 17.70786 99.20692 20979 ft 353 kts 341°
2026-04-26 20:36 17.73172 99.20092 20568 ft 351 kts 341°
2026-04-26 20:37 17.75537 99.19498 20153 ft 350 kts 341°
2026-04-26 20:37 17.77917 99.18900 19744 ft 349 kts 341°
2026-04-26 20:37 17.80290 99.18303 19330 ft 348 kts 341°
2026-04-26 20:37 17.82624 99.17715 18916 ft 347 kts 341°
2026-04-26 20:38 17.84988 99.17121 18505 ft 346 kts 341°
2026-04-26 20:38 17.87348 99.16529 18093 ft 345 kts 341°
2026-04-26 20:38 17.89666 99.15945 17684 ft 344 kts 341°
2026-04-26 20:38 17.92000 99.15359 17269 ft 343 kts 341°
2026-04-26 20:39 17.94333 99.14771 16875 ft 343 kts 341°
2026-04-26 20:39 17.95887 99.14377 16604 ft 342 kts 341°
2026-04-26 20:39 17.98967 99.13598 16064 ft 341 kts 342°
2026-04-26 20:39 18.01270 99.13017 15657 ft 340 kts 342°
2026-04-26 20:40 18.03570 99.12437 15252 ft 339 kts 342°
2026-04-26 20:40 18.05874 99.11857 14849 ft 338 kts 342°
2026-04-26 20:40 18.08145 99.11285 14450 ft 337 kts 342°
2026-04-26 20:40 18.10425 99.10709 14048 ft 336 kts 342°
2026-04-26 20:41 18.12737 99.10176 13623 ft 337 kts 349°
2026-04-26 20:41 18.15082 99.10281 13332 ft 338 kts
2026-04-26 20:41 18.17268 99.11128 13272 ft 328 kts 21°
2026-04-26 20:41 18.19266 99.12148 13204 ft 315 kts 22°
2026-04-26 20:42 18.21205 99.13165 13130 ft 302 kts 22°
2026-04-26 20:42 18.23047 99.14186 13048 ft 298 kts 30°
2026-04-26 20:42 18.24602 99.15608 13018 ft 301 kts 47°
2026-04-26 20:42 18.25914 99.17346 13026 ft 303 kts 51°
2026-04-26 20:43 18.27163 99.19128 13019 ft 303 kts 52°
2026-04-26 20:43 18.28432 99.20936 13017 ft 303 kts 51°
2026-04-26 20:43 18.29696 99.22710 13020 ft 303 kts 50°
2026-04-26 20:43 18.30967 99.24473 13017 ft 302 kts 50°
2026-04-26 20:44 18.32374 99.26093 12995 ft 297 kts 33°
2026-04-26 20:44 18.34171 99.27096 13002 ft 292 kts 16°
2026-04-26 20:44 18.36102 99.27786 12942 ft 291 kts 13°
2026-04-26 20:44 18.38019 99.28429 12771 ft 294 kts 14°
2026-04-26 20:45 18.39975 99.29069 12390 ft 292 kts
2026-04-26 20:45 18.41973 99.29224 12026 ft 284 kts 349°
2026-04-26 20:45 18.43919 99.28886 11701 ft 279 kts 344°
2026-04-26 20:45 18.45821 99.28473 11378 ft 276 kts 344°
2026-04-26 20:46 18.47701 99.28061 11105 ft 272 kts 343°
2026-04-26 20:46 18.49384 99.27305 11041 ft 262 kts 315°
2026-04-26 20:46 18.50412 99.25784 11049 ft 255 kts 286°
2026-04-26 20:46 18.50590 99.23960 11057 ft 252 kts 259°
2026-04-26 20:47 18.49961 99.22235 11070 ft 254 kts 242°
2026-04-26 20:47 18.49387 99.21132 11063 ft 253 kts 242°
2026-04-26 20:47 18.48275 99.18973 10661 ft 253 kts 242°
2026-04-26 20:47 18.47441 99.17335 10254 ft 255 kts 242°
2026-04-26 20:48 18.46616 99.15710 9908 ft 254 kts 242°
2026-04-26 20:48 18.45781 99.14064 9564 ft 253 kts 242°
2026-04-26 20:48 18.44955 99.12434 9208 ft 252 kts 242°
2026-04-26 20:48 18.44134 99.10815 8854 ft 252 kts 242°
2026-04-26 20:49 18.43344 99.09182 8521 ft 250 kts 249°
2026-04-26 20:49 18.42958 99.07394 8187 ft 248 kts 266°
2026-04-26 20:49 18.42938 99.05608 8096 ft 247 kts 269°
2026-04-26 20:49 18.42954 99.03784 7821 ft 249 kts 270°
2026-04-26 20:50 18.42969 99.01972 7544 ft 245 kts 270°
2026-04-26 20:50 18.42979 99.00201 7200 ft 244 kts 270°
2026-04-26 20:50 18.43028 98.98431 6904 ft 240 kts 279°
2026-04-26 20:50 18.43753 98.96885 6623 ft 238 kts 316°
2026-04-26 20:51 18.45232 98.96149 6318 ft 242 kts 349°
2026-04-26 20:51 18.46929 98.96077 6018 ft 242 kts 358°
2026-04-26 20:51 18.48603 98.96142 5714 ft 240 kts 359°
2026-04-26 20:51 18.50278 98.96201 5420 ft 237 kts 359°
2026-04-26 20:52 18.51906 98.96234 5146 ft 234 kts 358°
2026-04-26 20:52 18.53547 98.96249 4883 ft 234 kts 358°
2026-04-26 20:52 18.55169 98.96256 4619 ft 234 kts 358°
2026-04-26 20:52 18.56808 98.96259 4352 ft 233 kts 358°
2026-04-26 20:53 18.58447 98.96262 3939 ft 234 kts 358°
2026-04-26 20:53 18.60045 98.96265 3711 ft 229 kts 358°
2026-04-26 20:53 18.61601 98.96268 3652 ft 211 kts 359°
2026-04-26 20:53 18.63029 98.96270 3351 ft 200 kts 359°
2026-04-26 20:54 18.64406 98.96272 3098 ft 195 kts 359°
2026-04-26 20:54 18.65730 98.96281 2806 ft 183 kts 360°
2026-04-26 20:54 18.66981 98.96291 2531 ft 172 kts 360°
2026-04-26 20:54 18.68128 98.96278 2336 ft 161 kts 358°
2026-04-26 20:55 18.69245 98.96230 2131 ft 157 kts 359°
2026-04-26 20:55 18.70331 98.96237 1989 ft 157 kts
2026-04-26 20:55 18.71420 98.96272 1753 ft 155 kts
2026-04-26 20:55 18.72518 98.96279 1576 ft 156 kts 360°
2026-04-26 20:56 18.73605 98.96284 1351 ft 155 kts 360°
2026-04-26 20:56 18.74686 98.96287 1148 ft 154 kts 360°
2026-04-26 20:56 18.75750 98.96287 1027 ft 152 kts 359°
2026-04-26 20:56 18.76753 98.96292 1198 ft 145 kts
2026-04-26 20:57 18.77795 98.96380 1634 ft 155 kts 16°
2026-04-26 20:57 18.78754 98.96895 2193 ft 159 kts 30°
2026-04-26 20:57 18.79718 98.97435 2801 ft 157 kts 25°
2026-04-26 20:57 18.80749 98.97904 3075 ft 165 kts 20°
2026-04-26 20:58 18.81865 98.98330 3310 ft 176 kts 18°
2026-04-26 20:58 18.83079 98.98747 3567 ft 189 kts 17°
2026-04-26 20:58 18.84384 98.99172 3776 ft 206 kts 16°
2026-04-26 20:58 18.85680 98.99899 4072 ft 220 kts 42°
2026-04-26 20:59 18.86438 99.01321 4474 ft 227 kts 76°
2026-04-26 20:59 18.86530 99.02977 4956 ft 230 kts 91°
2026-04-26 20:59 18.86492 99.04690 5429 ft 233 kts 92°
2026-04-26 20:59 18.86238 99.06355 5848 ft 236 kts 112°
2026-04-26 21:00 18.85308 99.07765 6287 ft 234 kts 141°
2026-04-26 21:00 18.83929 99.08572 6532 ft 216 kts 168°
2026-04-26 21:00 18.82495 99.08707 6337 ft 199 kts 187°
2026-04-26 21:00 18.81126 99.08652 5996 ft 197 kts 186°
2026-04-26 21:01 18.79760 99.08621 5614 ft 197 kts 185°
2026-04-26 21:01 18.78390 99.08600 5227 ft 196 kts 184°
2026-04-26 21:01 18.77012 99.08585 4840 ft 196 kts 183°
2026-04-26 21:01 18.75657 99.08575 4458 ft 196 kts 182°
2026-04-26 21:02 18.74302 99.08568 4080 ft 195 kts 182°
2026-04-26 21:02 18.72940 99.08563 3742 ft 192 kts 182°
2026-04-26 21:02 18.71628 99.08560 3452 ft 187 kts 182°
2026-04-26 21:02 18.70366 99.08556 3308 ft 173 kts 182°
2026-04-26 21:03 18.69163 99.08554 3347 ft 172 kts 182°
2026-04-26 21:03 18.67960 99.08550 3324 ft 171 kts 182°
2026-04-26 21:03 18.66759 99.08547 3316 ft 171 kts 182°
2026-04-26 21:03 18.65570 99.08543 3315 ft 171 kts 182°
2026-04-26 21:04 18.64374 99.08481 3306 ft 170 kts 196°
2026-04-26 21:04 18.63491 99.07738 3274 ft 165 kts 248°
2026-04-26 21:04 18.63375 99.06547 3292 ft 167 kts 270°
2026-04-26 21:04 18.63369 99.05316 3299 ft 167 kts 269°
2026-04-26 21:05 18.63365 99.04092 3306 ft 167 kts 270°
2026-04-26 21:05 18.63369 99.02865 3314 ft 167 kts 270°
2026-04-26 21:05 18.63381 99.01631 3228 ft 167 kts 271°
2026-04-26 21:05 18.63417 99.00407 3172 ft 167 kts 271°
2026-04-26 21:06 18.63492 98.99196 3138 ft 167 kts 279°
2026-04-26 21:06 18.63936 98.98064 3083 ft 169 kts 304°
2026-04-26 21:06 18.64813 98.97234 3060 ft 169 kts 324°
2026-04-26 21:06 18.65884 98.96676 2981 ft 175 kts 340°
2026-04-26 21:07 18.67047 98.96438 2679 ft 166 kts 351°
2026-04-26 21:07 18.68157 98.96305 2379 ft 160 kts 357°
2026-04-26 21:07 18.69283 98.96316 2190 ft 158 kts 359°
2026-04-26 21:07 18.70377 98.96262 1948 ft 156 kts 360°
2026-04-26 21:08 18.71457 98.96275 1753 ft 155 kts
2026-04-26 21:08 18.72537 98.96280 1568 ft 155 kts
2026-04-26 21:08 18.73625 98.96277 1360 ft 154 kts
2026-04-26 21:08 18.74706 98.96285 1165 ft 154 kts
2026-04-26 21:09 18.75781 98.96289 1024 ft 151 kts 360°
2026-04-26 21:09 18.76728 98.96292 1027 ft 114 kts 359°
2026-04-26 21:09 18.77352 98.96291 1041 ft 65 kts 360°
2026-04-26 21:09 18.77680 98.96292 1043 ft 39 kts
2026-04-26 21:10 18.77897 98.96295 1041 ft 15 kts
2026-04-26 21:10 18.77958 98.96353 1040 ft 12 kts 93°
2026-04-26 21:10 18.77956 98.96452 1039 ft 13 kts 90°
2026-04-26 21:10 18.77912 98.96520 1038 ft 13 kts 175°
2026-04-26 21:11 18.77805 98.96521 1037 ft 17 kts 180°
2026-04-26 21:11 18.77677 98.96519 1035 ft 19 kts 180°
2026-04-26 21:11 18.77529 98.96520 1032 ft 22 kts 179°
2026-04-26 21:11 18.77359 98.96521 1029 ft 24 kts 180°
2026-04-26 21:12 18.77208 98.96521 1027 ft 14 kts 180°
2026-04-26 21:12 18.77120 98.96578 1025 ft 16 kts 141°
2026-04-26 21:12 18.77027 98.96637 1024 ft 13 kts 160°
2026-04-26 21:12 18.76935 98.96649 1021 ft 9 kts 176°
2026-04-26 21:13 18.76912 98.96667 1021 ft 4 kts 90°
2026-04-26 21:13 18.76912 98.96700 1022 ft 2 kts 89°
2026-04-26 21:13 18.76912 98.96712 1022 ft 1 kts 89°
2026-04-26 21:13 18.76912 98.96726 1022 ft 2 kts 90°
2026-04-26 21:14 18.76912 98.96734 1022 ft 0 kts 90°